{"data":{"norad_id":45179,"epoch":"2026-07-23T23:54:52.735680Z","epoch_age_seconds":5069170,"freshness":"OLD","line1":"1 45179U 20012B   26204.99644370  .06462553  12407-4  50415-3 0  9994","line2":"2 45179  53.0158   1.0785 0010547 298.2021  61.7960 16.39225123357538","mean_motion":16.39225123,"eccentricity":0.0010547,"inclination_deg":53.0158,"raan_deg":1.0785,"arg_perigee_deg":298.2021,"mean_anomaly_deg":61.796,"bstar":0.00050415,"rev_number":35753,"period_min":87.846384233339,"perigee_km":160.96053005024,"apogee_km":174.76866582092,"semimajor_km":6546.0015979356,"source":"CELESTRAK","updated_at":"2026-07-24T09:01:03.984668Z"}}